cover

 

Get it on iTunes StoreListen on Apple Music

Space Journey Records

#Trackname / Key / BPM / Publish dateArtists, Remixers / Label
1 150 bpm, 11A / F# minor, 2019-07-15, Psy-Trance,  0  1
2 99 bpm, 8A / A minor, 2019-06-24, Psy-Trance,  0  8
3 152 bpm, 10B / D major, 2019-06-24, Psy-Trance,  0  8
4 155 bpm, 11B / A major, 2019-06-24, Psy-Trance,  0  8
5 145 bpm, 7B / F major, 2019-06-24, Psy-Trance,  0  8
6 155 bpm, 6B / Bb major, 2019-06-24, Psy-Trance,  0  8
7 150 bpm, 11A / F# minor, 2019-06-24, Psy-Trance,  0  8
8 158 bpm, 3A / Bb minor, 2019-06-24, Psy-Trance,  0  8
9 155 bpm, 11A / F# minor, 2019-06-24, Psy-Trance,  0  8
10 142 bpm, 4B / Ab major, 2019-06-17, Psy-Trance,  0  1
11 137 bpm, 7B / F major, 2019-06-17, Psy-Trance,  0  3
12 138 bpm, 9A / E minor, 2019-06-17, Psy-Trance,  0  3
13 138 bpm, 2A / Eb minor, 2019-06-17, Psy-Trance,  0  3
14 152 bpm, 8A / A minor, 2019-04-26, Psy-Trance,  0  2
15 150 bpm, 8A / A minor, 2019-04-26, Psy-Trance,  0  2
16 142 bpm, 3B / Db major, 2019-04-22, Psy-Trance,  0  1
17 152 bpm, 10B / D major, 2019-04-10, Psy-Trance,  0  4
18 152 bpm, 10B / D major, 2019-04-10, Psy-Trance,  0  4
19 150 bpm, 11B / A major, 2019-04-10, Psy-Trance,  0  4
20 150 bpm, 11B / A major, 2019-04-10, Psy-Trance,  0  4
21 170 bpm, 3A / Bb minor, 2019-04-01, Psy-Trance,  0  2
22 165 bpm, 10B / D major, 2019-04-01, Psy-Trance,  0  2
23 150 bpm, 8A / A minor, 2019-01-28, Psy-Trance,  0  2
24 150 bpm, 11A / F# minor, 2019-01-28, Psy-Trance,  0  2
25 138 bpm, 11A / F# minor, 2019-01-24, Psy-Trance,  0  4
26 140 bpm, 6A / G minor, 2019-01-24, Psy-Trance,  0  4
27 142 bpm, 7B / F major, 2019-01-24, Psy-Trance,  0  4
28 142 bpm, 7B / F major, 2019-01-24, Psy-Trance,  0  4
29 150 bpm, 10A / B minor, 2018-10-12, Psy-Trance,  0  1
30 146 bpm, 5B / Eb major, 2018-10-06, Psy-Trance,  0  10
31 145 bpm, 2B / F# major, 2018-10-06, Psy-Trance,  0  10
32 145 bpm, 2A / Eb minor, 2018-10-06, Psy-Trance,  0  10
33 146 bpm, 9B / G major, 2018-10-06, Psy-Trance,  0  10
34 144 bpm, 1A / Ab minor, 2018-10-06, Psy-Trance,  0  10
35 147 bpm, 4B / Ab major, 2018-10-06, Psy-Trance,  0  10
36 142 bpm, 7B / F major, 2018-10-06, Psy-Trance,  0  10
37 146 bpm, 9B / G major, 2018-10-06, Psy-Trance,  0  10
38 144 bpm, 11A / F# minor, 2018-10-06, Psy-Trance,  0  10
39 144 bpm, 7B / F major, 2018-10-06, Psy-Trance,  0  10
40 140 bpm, 7A / D minor, 2018-08-31, Psy-Trance,  1  1
41 170 bpm, 7B / F major, 2018-06-25, Psy-Trance,  0  2
42 170 bpm, 7B / F major, 2018-06-25, Psy-Trance,  0  2
43 150 bpm, 8B / C major, 2018-06-18, Psy-Trance,  0  2
44 150 bpm, 3A / Bb minor, 2018-06-18, Psy-Trance,  0  2
45 150 bpm, 11A / F# minor, 2018-06-18, Psy-Trance,  0  1
46 138 bpm, 9A / E minor, 2018-03-12, Psy-Trance,  0  2
47 138 bpm, 7A / D minor, 2018-03-12, Psy-Trance,  0  2
48 140 bpm, 9B / G major, 2017-12-30, Psy-Trance,  0  1
49 164 bpm, 8A / A minor, 2017-12-15, Psy-Trance,  0  1
50 138 bpm, 10B / D major, 2017-12-01, Psy-Trance,  2  1
51 148 bpm, 9A / E minor, 2017-11-06, Psy-Trance,  0  2
52 150 bpm, 11B / A major, 2017-11-06, Psy-Trance,  0  2
53 150 bpm, 8A / A minor, 2017-10-16, Psy-Trance,  0  1
54 143 bpm, 6B / Bb major, 2017-10-02, Psy-Trance,  0  2
55 142 bpm, 7B / F major, 2017-10-02, Psy-Trance,  0  2
56 138 bpm, 12B / E major, 2017-09-18, Psy-Trance,  1  1
57 138 bpm, 7B / F major, 2016-10-24, Psy-Trance,  1  1
58 140 bpm, 11B / A major, 2016-09-12, Psy-Trance,  0  1
59 148 bpm, 7B / F major, 2016-09-05, Psy-Trance,  1  1
60 142 bpm, 10B / D major, 2016-08-29, Psy-Trance,  0  1
61 140 bpm, 8A / A minor, 2016-06-27, Psy-Trance,  0  1
62 140 bpm, 11B / A major, 2016-05-30, Psy-Trance,  0  1
63 142 bpm, 8A / A minor, 2016-03-28, Psy-Trance,  0  1
64 150 bpm, 11A / F# minor, 2016-03-21, Psy-Trance,  0  1
65 147 bpm, 6B / Bb major, 2016-02-13, Psy-Trance,  0  3
66 140 bpm, 8A / A minor, 2016-02-13, Psy-Trance,  0  3
67 138 bpm, 6B / Bb major, 2016-02-13, Psy-Trance,  0  3
68 142 bpm, 11B / A major, 2016-01-30, Psy-Trance,  0  2
69 140 bpm, 7A / D minor, 2016-01-30, Psy-Trance,  0  2
70 150 bpm, 11A / F# minor, 2015-12-07, Psy-Trance,  0  2
71 150 bpm, 3A / Bb minor, 2015-12-07, Psy-Trance,  0  2
72 140 bpm, 6A / G minor, 2015-11-30, Psy-Trance,  0  2
73 140 bpm, 7B / F major, 2015-11-30, Psy-Trance,  0  2
74 149 bpm, 7B / F major, 2015-09-08, Psy-Trance,  0  2
75 99 bpm, 9B / G major, 2015-09-08, Psy-Trance,  0  2
76 140 bpm, 7B / F major, 2015-08-25, Trance,  0  2
77 140 bpm, 7B / F major, 2015-08-25, Trance,  0  2
×

Sign in

Sign in to access your personalized pages, follow artists and labels you love, and create playlists fromyour favorite tracks.

Please wait...